Location: Franklin Heights
(38.3271°N, 75.2299°W)
Time: 06:30:37
(UTC+00:00)

Daily predictions for brighter satellites

Satellite Brightness Start Highest point End
(mag) Time Altitude Azimuth Time Altitude Azimuth Time Altitude Azimuth
OAO 3 Rocket 3.9 22:29:06 10° W 22:33:47 50° S 22:38:22 10° ESE
Cosmos 2058 Rocket 3.7 22:31:02 10° SSE 22:35:08 36° E 22:39:16 10° NNE
H-2A R/B 4.3 22:31:13 10° S 22:35:23 41° W 22:39:38 10° NNW
Cosmos 1953 Rocket 3.9 22:31:15 10° N 22:35:29 43° E 22:39:43 10° SSE
Cosmos 2227 Rocket 3.3 22:31:21 10° N 22:35:50 24° NE 22:40:18 10° ESE
Cosmos 1703 4.3 22:32:32 10° NNW 22:36:23 51° W 22:40:13 10° S
Atlas Centaur 2 4.0 22:29:33 10° SW 22:36:57 38° SSE 22:44:37 10° E
NOAA 12 4.2 22:33:50 10° SSE 22:39:06 90° W 22:44:28 10° NNW
COSMOS 2487 4.2 22:41:43 10° NW 22:44:55 36° WSW 22:48:04 10° S
SAR-Lupe-4 3.6 22:41:27 10° NNE 22:45:00 57° E 22:48:31 10° S
ERS-2 2.6 22:42:15 10° N 22:45:51 65° WNW 22:49:27 10° SSW
Cosmos 44 3.9 22:42:21 10° SW 22:46:40 52° NW 22:51:17 10° NNE
Cosmos 1697 Rocket 3.6 22:43:44 10° SSE 22:48:23 27° ESE 22:53:03 10° NE
IRS-1C Rocket 4.4 22:43:54 10° SE 22:48:51 44° ENE 22:53:50 10° N
Cosmos 1340 3.4 22:47:35 10° NNE 22:50:58 31° ENE 22:54:21 10° SE
ASTRO E2 4.3 22:54:39 10° SW 22:57:55 25° S 23:00:51 12° ESE
GPS 2-04 Rocket1 4.4 22:55:11 10° SSW 22:58:20 22° SSE 23:00:54 13° ESE
NOAA 11 4.1 22:53:11 10° SSE 22:58:38 83° ENE 23:04:05 10° NNW
COSMO-SKYMED 1 2.5 22:58:07 10° NNE 23:02:28 71° ESE 23:06:47 10° S
SAR-Lupe-1 4.1 22:59:16 10° NNE 23:02:52 86° WNW 23:06:28 10° SSW
Cosmos 968 Rocket 4.1 23:01:19 10° N 23:06:02 34° ENE 23:10:41 10° SE
MOS 1 Rocket 4.2 23:05:20 10° NE 23:09:26 28° E 23:13:42 10° SSE
NOSS 3-3 (A) 4.0 23:04:58 10° SSW 23:10:25 53° ESE 23:16:29 10° NE
NOSS 3-3 (C) 4.0 23:05:02 10° SSW 23:10:32 53° ESE 23:16:37 10° NE
Cosmos 1980 Rocket 3.3 23:07:02 10° SSE 23:11:13 22° E 23:12:55 19° ENE
Okean O Rocket 3.5 23:08:07 10° SSW 23:12:04 33° W 23:16:01 10° NNW
YAOGAN 1 3.2 23:08:52 10° SE 23:12:44 33° ENE 23:16:36 10° N
Cosmos 1455 2.9 23:09:56 10° SSE 23:13:15 30° E 23:16:25 11° NNE
Cosmos 2297 Rocket 2.2 23:10:23 10° NNW 23:16:00 59° ENE 23:21:34 10° SE
In-Cosmos 22 Rocket 4.0 23:13:14 10° N 23:18:37 68° E 23:24:04 10° SSE
Cosmos 1812 Rocket 4.3 23:15:22 10° SSE 23:19:13 30° E 23:22:48 11° NNE
CZ-4B R/B 3.9 23:17:34 10° NNW 23:20:03 21° WNW 23:22:30 10° WSW
ATLAS 2AS CENTAUR R/B 4.3 23:21:01 10° N 23:25:32 16° NNE 23:27:35 15° NE
Cosmos 1939 Rocket 3.0 23:21:43 10° S 23:25:41 74° WSW 23:29:37 10° NNW
Aureole 3 4.1 23:22:59 10° SSW 23:26:07 41° W 23:28:59 10° N
S3M 3.9 23:20:50 10° S 23:26:49 61° E 23:32:51 10° NNE
Cosmos 1486 Rocket 4.1 23:22:22 10° N 23:27:38 56° ENE 23:32:49 10° SSE
Cosmos 2360 4.4 23:22:31 10° S 23:27:58 47° ESE 23:32:32 14° NE
USA 307 4.5 23:25:48 10° NNW 23:28:57 20° NNE 23:29:25 19° NE
Aureole 3 Rocket 3.8 23:25:31 10° SSW 23:29:07 54° WNW 23:34:02 10° N
Cosmos 44 Rocket 3.6 23:25:54 10° S 23:30:18 40° ESE 23:31:48 31° ENE
Cosmos 1689 Rocket 3.6 23:28:20 10° N 23:31:02 36° WNW 23:33:42 10° SW
CZ-4 R/B 4.5 23:28:11 10° S 23:32:20 83° WSW 23:36:31 10° NNW
USA 308 4.4 23:30:35 10° NNW 23:33:51 21° NNE 23:34:05 21° NNE
Helios 1A Rocket 2.8 23:30:02 10° SSE 23:34:09 88° ENE 23:38:17 10° NNW
CZ-2C R/B 3.3 23:28:30 10° SSE 23:34:12 61° ENE 23:39:48 10° N
SL-08 ROCKET BODY 4.4 23:28:08 10° N 23:34:15 70° E 23:40:24 10° SSE
Milstar 3 3.7 23:28:39 10° WSW 23:35:02 37° S 23:39:02 20° SE
Cosmos 1503 Rocket 4.5 23:32:34 10° N 23:37:26 38° ENE 23:38:26 35° E
NOAA 15 4.5 23:35:34 10° SSE 23:40:50 73° ENE 23:46:10 10° N
Cosmos 2278 4.0 23:35:36 10° S 23:40:55 42° ESE 23:42:47 32° ENE
DMSP B5D1-3 4.4 23:38:03 10° NNE 23:43:12 67° ESE 23:48:18 10° S
Meteor 2-10 Rocket 3.5 23:39:51 10° S 23:45:14 85° W 23:50:25 10° N
Okean-O 2.7 23:41:30 10° S 23:45:54 79° WSW 23:50:22 10° NNW
Cosmos 2219 3.4 23:40:57 10° NNW 23:46:42 72° WSW 23:52:24 10° SSE
Cosmos 1354 Rocket 4.3 23:44:10 10° N 23:49:09 42° ENE 23:49:13 42° ENE
CZ-4 R/B 1.4 23:46:19 10° S 23:50:13 72° WSW 23:54:05 10° NNW
Cosmos 1892 3.3 23:49:49 10° NNW 23:53:38 57° W 23:57:26 10° S
Cosmos 1992 Rocket 4.2 23:49:00 10° SSW 23:54:11 72° WNW 23:59:24 10° NNE
Cosmos 1408 2.5 23:51:30 10° N 23:54:58 79° NNW 23:54:58 79° NNW
